C/2022 U2 ( ATLAS )

Japanese version
Home page
Updated on January 22, 2023

---------------------------------------------------------------------

* Profile

Discovery Date October 25, 2022
Magnitude 19.1 mag
Discoverer Asteroid Terrestrial-Impact Last Alert System (ATLAS) search program

* Pictures

* Orbital Elements

Epoch 2023 Feb. 25.0 TT = JDT 2460000.5
T 2023 Jan. 14.22244 TT                                 Rudenko
q   1.3280441            (2000.0)            P               Q
z  +0.0103750      Peri.  147.91038     -0.18795623     -0.76577310
 +/-0.0000369      Node   304.47545     +0.66684587     +0.36024732
e   0.9862216      Incl.   48.25055     +0.72110266     -0.53274143
>From 526 observations 2022 Oct. 25-2023 Jan. 19, mean residual 0".5.

* Finding Charts

* Magnitudes Graph

        m1 = 10.0 + 5 log d + 20.0 log r

---------------------------------------------------------------------

The orbital elements are published on M.P.E.C. 2023-B57.
The charts are made with StellaNavigator Ver.10 (AstroArts).
The magnitudes graphs are made with Comet for Windows.

---------------------------------------------------------------------

Copyright(C) Seiichi Yoshida (comet@aerith.net). All rights reserved.